Location: G�migny
(47.9646°N, 1.6950°E)
Time: 04:37:59
(UTC+00:00)

COSMO-SKYMED 1 - Pass Details

Date: 23 October 2019
Orbit: 621 x 623 km, 97.9° (Epoch: 13 November)

Event Time Altitude Azimuth Distance (km) Brightness Sun altitude
Rises 17:25:46 0° 21° (NNE) 2,914 5.7 -6.5°
Reaches altitude 10° 17:28:08 10° 31° (NNE) 2,002 4.8 -6.9°
Maximum altitude 17:32:07 34° 96° (E) 1,032 3.2 -7.6°
Drops below altitude 10° 17:36:03 10° 162° (SSE) 1,986 5.1 -8.3°
Sets 17:38:24 0° 172° (S) 2,887 6.0 -8.6°
